Probability
0 0 0 0 0 0 0 0 0 0 0 0 0 0 0 0 0 0 0 0 0 0 0 0 0 0 0 0 0 0 0 0 0 0 0 1 2 2 1 1 2 2 1
0 0 0 0 0 0 0 0 0 0 0 0 0 0 0 0 0 0 0 0 0 0 0 0 0 0 0 0 0 0 0 0 0 0 0 0 1 1 0 0 1 1 0
0 0 0 0 0 0 0 0 0 0 0 0 0 0 0 0 0 0 0 0 0 0 0 0 0 0 0 0 0 0 0 0 0 0 0 0 0 0 0 0 0 0 0
0 0 0 0 0 0 0 0 0 0 0 0 0 0 0 0 0 0 0 0 0 0 0 0 0 0 0 0 0 0 0 0 0 0 1 0 0 0 0 0 0 0 0
0 0 0 0 0 0 0 0 0 0 0 0 0 0 0 0 0 0 0 0 0 0 0 0 0 0 0 0 0 0 0 0 0 0 0 0 0 0 1 1 1 0 0
0 0 0 0 0 0 0 0 0 0 0 0 0 0 0 0 0 0 0 1 2 1 0 0 0 0 0 0 0 0 0 0 0 0 0 0 0 0 1 2 2 1 1
0 0 0 0 0 0 0 0 0 0 0 0 0 0 0 0 0 0 0 1 2 1 0 0 0 0 0 0 0 0 0 0 0 0 0 0 0 0 1 2 3 2 2
0 0 0 0 0 0 0 0 0 0 0 0 0 0 0 0 0 0 0 1 1 1 0 0 0 0 0 0 0 0 0 0 0 0 0 0 0 0 0 1 2 2 1
0 0 0 0 0 0 0 0 0 0 0 0 0 0 0 0 0 0 0 0 0 0 0 0 0 0 0 0 0 0 0 0 0 0 0 0 0 0 0 1 1 1 0
0 0 0 0 0 1 1 0 0 0 0 0 0 0 0 0 0 0 0 0 0 0 0 0 0 0 0 0 0 0 0 0 0 0 0 0 0 0 0 0 0 0 0
0 0 0 0 0 1 1 0 0 0 0 0 0 0 0 0 0 0 0 0 0 0 0 0 0 0 0 0 0 0 0 0 0 0 0 0 0 0 0 0 0 0 0
0 0 0 0 0 1 1 0 0 0 0 0 0 0 0 0 0 0 0 0 0 0 0 0 0 0 0 0 0 0 0 0 0 0 0 0 0 0 0 0 0 0 0
1 0 0 0 0 0 0 0 0 0 0 0 0 0 0 0 0 0 0 0 0 0 0 0 0 0 0 0 0 0 0 0 0 0 0 0 0 0 0 0 0 0 0
1 0 0 0 0 0 0 0 0 0 0 0 0 0 0 0 0 0 0 0 0 0 0 0 0 0 0 0 0 0 0 0 0 0 0 0 0 0 0 0 0 0 0
1 0 0 0 0 0 0 0 0 0 0 0 0 0 0 0 0 0 0 0 0 0 0 0 0 0 0 0 0 0 0 0 0 0 0 0 0 0 0 0 0 0 0
0 0 0 0 0 0 0 0 0 0 0 0 0 0 0 0 0 0 0 0 0 0 0 0 1 0 0 0 0 0 0 0 0 0 0 0 0 0 0 0 0 0 0
0 0 0 0 0 0 0 0 0 0 0 0 0 0 0 0 0 0 0 0 0 0 0 0 0 0 0 0 0 0 0 0 0 0 0 0 0 0 0 0 0 0 0
0 0 0 0 0 0 0 0 0 0 0 0 0 0 0 0 0 0 0 0 0 0 0 0 0 0 0 0 0 0 0 0 0 0 0 0 0 0 0 0 0 0 0
0 0 0 0 0 0 0 0 0 0 0 0 0 0 0 0 0 0 0 0 0 0 0 0 0 0 0 0 0 0 0 0 0 0 0 0 0 0 0 0 0 0 0
0 0 0 0 0 0 0 0 0 0 0 0 0 0 0 0 0 0 0 0 0 0 0 0 0 0 0 0 0 0 0 0 0 0 0 0 0 0 0 0 0 0 0
0 0 0 0 0 0 0 0 0 0 0 0 0 0 0 0 0 0 0 0 0 0 0 0 0 0 0 0 0 0 0 0 0 0 0 0 0 0 0 0 0 0 0
0 0 0 0 0 0 0 0 0 0 0 0 0 0 0 0 0 0 0 0 0 0 0 0 0 0 0 0 0 0 0 0 0 0 0 0 0 0 0 0 0 0 0
0 0 0 0 0 0 0 0 0 0 0 0 0 0 0 0 0 0 0 0 0 0 0 0 0 0 0 0 0 0 0 0 0 0 0 0 0 0 0 0 0 0 0
0 0 0 0 0 0 0 0 0 0 0 0 0 0 0 0 0 0 0 0 0 0 0 0 0 0 0 0 0 0 0 0 0 0 0 0 0 0 0 0 0 0 0
0 0 0 0 0 0 0 0 0 0 0 0 0 0 0 0 0 0 0 0 0 0 0 0 0 0 0 0 0 0 0 0 0 0 0 0 0 0 0 0 0 0 0
0 0 0 0 0 0 0 0 0 0 0 0 0 0 0 0 0 0 0 0 0 0 0 0 0 0 0 0 0 0 0 0 0 0 0 0 0 0 0 0 0 0 0
Wind_Speed
3 3 2 2 3 3 3 3 3 3 3 3 3 4 4 4 4 4 3 3 5 7 8 8 8 8 8 8 8 8 8 8 7 7 7 7 7 7 7 8 7 8 8
3 3 3 3 3 3 3 3 4 4 3 3 4 4 5 5 5 5 5 4 4 6 8 9 9 9 9 9 9 9 9 8 8 7 7 7 7 7 8 8 8 8 8
3 3 3 3 3 3 4 4 4 3 3 3 4 5 5 5 5 6 6 5 4 4 6 8 9 9 9 10 10 10 9 9 8 8 8 7 7 8 8 8 9 9 8
3 3 3 3 3 3 3 3 3 3 3 4 4 4 4 4 6 6 5 5 5 4 4 5 7 8 9 10 10 10 10 10 9 8 8 8 8 8 9 9 9 9 9
3 3 3 3 3 3 3 3 3 4 4 4 4 4 5 5 5 5 6 6 5 5 5 3 5 6 8 9 9 9 9 9 9 8 8 8 8 9 9 9 10 10 10
2 2 2 3 3 3 3 3 4 4 4 4 4 5 5 5 5 5 6 5 4 5 5 5 4 3 5 8 9 9 9 9 9 8 9 9 9 9 9 9 10 10 10
2 2 2 3 2 2 3 3 3 4 3 3 3 4 5 6 6 5 4 5 4 4 5 4 4 3 3 5 8 9 9 9 9 9 9 9 9 10 10 10 10 10 11
1 2 2 2 2 2 3 2 3 3 3 2 3 4 4 4 4 4 4 4 4 4 4 4 4 4 3 3 4 7 9 10 10 10 10 10 10 10 10 11 11 11 11
2 2 2 2 2 2 2 2 2 2 3 3 3 3 4 4 4 3 4 4 4 4 4 4 4 4 4 3 4 5 7 9 10 10 10 10 11 11 11 11 11 11 11
2 2 3 2 2 2 3 3 3 3 3 3 3 3 4 4 4 4 3 3 4 5 5 4 4 4 4 4 4 6 7 7 9 10 10 11 11 11 11 11 11 11 11
2 2 3 2 2 2 3 3 3 3 2 3 2 3 3 4 5 5 6 5 4 4 5 5 5 4 4 5 4 6 7 7 8 9 9 10 11 11 11 11 11 11 11
2 3 3 3 3 3 3 3 3 3 3 3 3 2 2 2 3 4 6 7 6 5 5 4 4 4 4 4 5 6 7 7 8 8 9 10 10 10 11 11 12 12 12
3 4 4 3 3 3 3 3 3 3 3 3 3 3 3 3 4 4 6 6 7 5 4 4 3 3 3 4 4 6 7 8 8 8 9 9 9 10 10 11 12 12 12
3 4 4 4 4 4 4 3 2 3 3 3 3 3 3 3 4 4 4 5 7 6 5 5 3 3 4 4 5 7 6 8 9 9 9 9 9 10 10 11 12 12 12
3 4 4 4 4 4 4 4 3 3 3 3 3 4 3 3 3 4 4 4 5 7 7 5 3 3 4 4 5 6 6 7 9 9 9 9 9 9 10 11 11 12 12
4 4 4 4 4 4 4 4 3 3 3 4 3 4 4 4 4 4 4 4 5 6 7 5 4 4 4 5 5 6 6 7 8 8 9 9 9 10 10 11 11 12 11
4 4 4 4 4 4 4 3 3 4 4 4 4 5 5 5 4 4 4 4 5 5 7 7 5 5 5 5 5 5 5 6 5 7 9 9 9 9 10 10 10 10 10
4 4 4 4 4 4 4 3 4 4 4 5 5 5 6 5 6 4 4 5 5 5 6 8 6 5 6 6 6 6 5 5 5 6 8 8 8 8 9 9 9 9 9
4 4 4 4 4 4 4 4 4 4 4 5 5 6 6 6 6 5 6 5 5 5 5 6 7 5 5 4 5 5 5 5 5 6 7 7 7 9 9 9 9 8 8
5 5 5 4 4 4 4 5 5 5 5 5 5 6 6 6 6 6 5 6 5 6 6 6 6 5 5 5 4 4 5 4 5 5 5 6 7 9 9 8 8 7 8
5 5 5 5 4 4 4 5 6 6 5 6 6 6 6 6 7 6 5 6 6 5 5 5 5 5 5 4 4 4 5 5 5 3 4 5 5 5 5 6 6 7 8
6 5 5 5 5 4 6 8 7 6 6 6 6 6 6 5 6 6 7 7 7 7 6 6 5 6 6 5 4 4 4 5 5 2 4 5 4 5 5 4 7 9 9
6 6 6 6 6 6 8 9 8 6 6 6 6 6 5 5 6 6 6 7 7 8 8 7 7 7 7 6 5 5 5 6 6 4 4 6 4 5 5 5 9 9 9
5 5 6 6 6 6 9 9 9 6 5 6 6 6 6 6 6 7 6 6 6 6 7 6 6 7 6 5 5 5 5 5 5 4 4 5 4 5 5 6 8 8 9
6 6 6 6 6 7 9 10 9 5 5 6 6 6 6 7 8 8 6 6 6 6 6 7 8 7 7 7 5 3 3 4 5 4 3 4 4 5 5 5 6 9 10
6 6 5 6 6 7 8 10 9 4 5 5 5 5 6 7 8 8 6 6 7 7 6 6 6 5 5 4 4 4 4 4 4 4 2 3 3 4 4 3 4 6 6
Wind_Direction
234 228 233 236 240 241 242 249 255 260 265 271 273 274 278 280 279 277 277 264 260 272 279 284 285 284 283 282 283 285 283 283 285 284 280 274 272 274 275 275 274 273 276
254 240 236 240 247 250 252 251 260 266 269 272 273 274 275 276 276 277 278 274 252 260 270 277 282 281 282 283 283 283 282 283 285 283 279 272 271 271 274 275 273 270 271
262 261 254 250 254 254 250 250 252 260 270 271 271 272 273 275 277 278 278 278 273 255 258 271 277 280 281 283 284 283 282 283 283 284 280 275 271 269 271 272 271 270 270
271 263 264 265 273 270 259 254 252 255 261 267 272 273 271 272 274 274 274 273 273 274 260 261 274 278 279 281 282 281 279 280 280 280 281 278 274 272 272 271 270 270 270
283 272 270 276 279 269 265 266 264 263 267 271 276 279 276 271 271 269 267 271 270 272 274 265 259 274 279 282 282 282 283 283 281 281 282 280 276 273 273 272 271 269 270
293 284 289 296 292 278 274 272 270 271 269 271 278 279 277 271 266 265 266 266 266 269 272 276 272 267 275 280 282 284 287 288 288 287 286 282 279 276 275 277 275 272 274
305 289 291 292 297 286 290 288 277 276 274 277 280 281 272 260 257 257 261 263 262 266 270 274 277 282 279 274 280 284 289 288 288 289 287 285 284 281 276 276 276 276 278
312 301 297 296 301 295 297 302 305 290 279 262 274 287 280 268 246 258 258 264 272 274 274 274 272 273 282 285 301 292 292 293 293 292 286 285 285 285 282 279 277 276 277
302 303 294 293 297 285 286 288 286 289 290 278 275 270 278 280 304 253 256 260 265 266 270 271 269 269 273 280 288 296 298 298 299 300 296 290 286 285 285 285 282 277 277
311 311 300 293 290 285 288 285 280 279 280 284 285 280 288 297 286 287 269 266 274 272 270 268 264 265 269 272 276 298 304 300 300 299 297 293 291 289 287 286 287 285 282
323 327 314 301 293 286 289 292 288 278 274 277 275 285 286 290 283 283 287 286 279 273 273 272 271 271 273 273 279 298 297 295 298 300 299 296 293 291 290 291 291 290 288
340 348 340 329 317 306 296 292 287 280 276 280 282 284 283 281 283 278 279 289 288 283 277 272 272 275 278 280 285 299 294 291 293 297 299 298 296 294 292 292 292 293 293
337 339 342 341 337 335 328 319 309 308 297 293 286 287 284 282 289 284 280 285 285 287 278 270 272 278 286 288 293 303 290 290 292 294 297 298 296 296 297 296 294 293 293
332 336 336 334 334 336 335 330 316 307 309 298 300 302 300 302 303 298 290 290 289 283 274 276 285 282 287 290 299 297 292 292 292 292 295 298 298 299 298 297 295 295 293
339 342 338 332 335 338 336 330 326 330 330 324 319 312 306 308 305 299 295 288 286 288 284 284 288 304 305 298 296 294 292 298 294 293 293 294 293 295 296 296 296 294 292
345 340 341 337 334 337 340 337 333 337 338 334 324 316 312 310 306 305 300 296 286 283 286 298 301 306 299 296 299 297 298 300 289 291 293 291 291 292 295 296 296 294 293
335 334 331 332 333 333 334 333 331 330 330 325 321 315 311 311 308 309 305 300 295 292 285 294 299 302 298 299 306 304 302 302 300 295 294 293 292 294 296 297 297 298 297
334 333 329 328 327 327 326 322 319 319 316 312 310 307 304 307 307 307 303 298 295 293 289 292 297 300 299 299 303 305 310 305 301 302 300 298 299 301 301 301 302 302 302
335 337 336 331 324 323 321 315 309 310 309 306 305 300 298 301 300 304 301 298 297 295 293 288 294 303 301 299 304 306 311 308 309 311 308 300 303 304 302 303 304 306 309
335 337 334 329 323 321 320 320 316 310 307 306 305 299 297 296 295 299 296 297 298 294 290 285 288 296 297 304 300 302 306 311 313 315 308 313 310 307 304 304 304 304 306
337 333 327 325 323 320 321 324 321 312 307 304 303 303 302 302 301 297 294 297 296 288 287 287 289 293 290 296 293 302 300 310 309 304 314 312 315 312 311 309 307 307 311
336 333 327 323 321 318 323 321 317 310 306 301 302 304 303 297 299 297 299 297 292 286 284 282 284 283 286 292 298 291 294 303 300 318 314 306 311 307 310 311 311 312 310
331 325 325 324 320 323 329 326 323 315 306 303 302 302 302 305 302 303 304 302 299 298 289 280 277 280 285 288 288 285 285 289 289 306 307 297 305 299 308 305 307 306 307
321 319 321 320 319 323 328 329 329 317 309 307 304 300 300 301 304 308 306 305 306 307 304 300 292 292 294 293 286 284 290 293 290 293 296 288 300 302 312 308 306 305 308
318 317 317 319 318 319 325 327 329 317 309 308 305 302 302 302 304 308 305 302 303 307 316 311 303 300 301 301 298 285 278 282 290 293 289 281 299 310 305 302 310 310 308
311 312 313 315 313 313 322 325 325 314 309 309 306 303 301 304 309 310 306 300 299 305 309 310 308 310 311 309 308 291 282 279 291 286 283 289 290 310 300 296 309 312 310